Location: Geçitköy
(36.7327°N, 29.8010°E)
Time: 19:14:56
(UTC+00:00)

Cosmos 1943 - Pass Details

Date: 12 January 2026
Orbit: 830 x 850 km, 71.0° (Epoch: 11 February)

Event Time Altitude Azimuth Distance (km) Brightness Sun altitude
Rises 15:43:31 0° 203° (SSW) 3,361 7.0 -7.8°
Reaches altitude 10° 15:45:56 10° 204° (SSW) 2,433 6.3 -8.3°
Maximum altitude 15:51:31 82° 291° (WNW) 849 3.3 -9.3°
Drops below altitude 10° 15:57:11 10° 20° (NNE) 2,461 5.3 -10.4°
Sets 15:59:38 0° 21° (NNE) 3,402 6.0 -10.9°
Enters shadow 15:59:42 - 21° (NNE) 3,426 6.0 -10.9°
